EW5123 Weather Reports


time (UTC)temp
F
wind
direction
speed
knots
gust
knots
rain 1hr
in
rain 24hr
in
rain mn
in
humidity
%
barometer
mb
20260505001709 55 129 0.0 0.9 0.00 0.00 0.00 47 974.9
20260505001210 55 351 0.0 0.9 0.00 0.00 0.00 48 975.0
20260505000710 55 181 0.0 0.9 0.00 0.00 0.00 47 974.9
20260505000211 55 252 0.0 0.9 0.00 0.00 0.00 45 974.8
20260504235710 56 185 0.9 0.9 0.00 0.00 0.00 46 974.9
20260504235210 56 111 0.9 0.0 0.00 0.00 0.00 45 974.8
20260504203309 67 316 4.3 9.6 0.00 0.00 0.00 23 973.3
20260504202813 67 338 5.2 13.0 0.00 0.00 0.00 24 973.4
20260504202809 67 11 5.2 13.0 0.00 0.00 0.00 24 973.4
20260504201809 66 330 5.2 10.4 0.00 0.00 0.00 24 973.4
20260504201310 65 335 5.2 10.4 0.00 0.00 0.00 24 973.5
20260504200809 64 312 5.2 11.3 0.00 0.00 0.00 24 973.5
20260504200312 64 323 4.3 10.4 0.00 0.00 0.00 24 973.7
20260504200308 64 358 5.2 11.3 0.00 0.00 0.00 25 973.6
20260504195311 64 328 4.3 8.7 0.00 0.00 0.00 26 973.7
20260504195307 64 21 4.3 10.4 0.00 0.00 0.00 25 973.7
20260504194305 65 316 5.2 9.6 0.00 0.00 0.00 26 973.9
20260504193805 65 4 5.2 11.3 0.00 0.00 0.00 26 973.9
20260504193306 65 311 5.2 11.3 0.00 0.00 0.00 26 973.7
20260504192810 66 338 4.3 10.4 0.00 0.00 0.00 24 973.7
20260504192805 66 311 5.2 10.4 0.00 0.00 0.00 25 973.7
20260504191805 67 34 4.3 9.6 0.00 0.00 0.00 22 973.5
20260504191311 70 331 1.7 9.6 0.00 0.00 0.00 20 973.4
20260504191305 68 23 4.3 9.6 0.00 0.00 0.00 21 973.4
20260504190305 71 285 0.9 4.3 0.00 0.00 0.00 18 973.4
20260504185805 72 163 0.0 2.6 0.00 0.00 0.00 19 973.3
20260504185304 73 122 0.0 0.9 0.00 0.00 0.00 16 973.3
20260504184803 72 119 0.9 2.6 0.00 0.00 0.00 15 973.4
20260504184308 71 211 0.9 3.5 0.00 0.00 0.00 18 973.6
20260504184304 71 203 0.9 3.5 0.00 0.00 0.00 15 973.5
20260504183307 68 127 0.9 7.8 0.00 0.00 0.00 20 973.9
20260504183302 69 85 0.0 2.6 0.00 0.00 0.00 20 973.7
20260504182304 66 138 3.5 8.7 0.00 0.00 0.00 20 974.0
20260504181803 64 146 3.5 8.7 0.00 0.00 0.00 21 974.0
20260504181303 64 209 2.6 7.8 0.00 0.00 0.00 23 974.2
20260504180806 66 198 2.6 10.4 0.00 0.00 0.00 22 974.2
20260504180802 65 183 2.6 6.1 0.00 0.00 0.00 22 974.2
20260504175801 66 264 1.7 10.4 0.00 0.00 0.00 21 974.2
20260504175301 67 239 1.7 8.7 0.00 0.00 0.00 20 974.3
20260504174801 68 169 1.7 9.6 0.00 0.00 0.00 19 974.4
20260504174305 68 219 1.7 8.7 0.00 0.00 0.00 20 974.7
20260504174301 68 221 1.7 9.6 0.00 0.00 0.00 21 974.4
20260504173907 67 199 1.7 7.8 0.00 0.00 0.00 23 974.6
20260504173407 67 198 1.7 7.8 0.00 0.00 0.00 24 974.8
20260504172907 66 3 2.6 7.0 0.00 0.00 0.00 24 974.8
20260504171804 65 222 3.5 9.6 0.00 0.00 0.00 26 974.9
20260504171800 65 338 3.5 9.6 0.00 0.00 0.00 26 974.9
20260504170759 65 198 2.6 9.6 0.00 0.00 0.00 26 975.0
20260504170257 65 237 2.6 8.7 0.00 0.00 0.00 25 975.0
20260504160400 65 141 1.7 7.0 0.00 0.00 0.00 24 975.5
20260504150751 63 249 1.7 10.4 0.00 0.00 0.00 26 975.7
20260504150746 63 48 1.7 10.4 0.00 0.00 0.00 26 975.7
20260504150352 62 204 1.7 7.0 0.00 0.00 0.00 27 975.9
20260504140747 58 210 1.7 4.3 0.00 0.00 0.00 32 975.6
20260504140246 58 248 1.7 4.3 0.00 0.00 0.00 32 975.6
20260504130750 49 217 0.0 0.9 0.00 0.00 0.00 41 975.5
20260504130746 51 243 0.0 0.9 0.00 0.00 0.00 38 975.5
20260504110241 39 162 0.0 0.0 0.00 0.00 0.00 60 975.6
20260504100238 40 146 0.0 0.0 0.00 0.00 0.00 57 975.9
20260504081730 48 208 0.0 0.0 0.00 0.00 0.00 44 976.2
20260504081230 49 208 0.0 0.9 0.00 0.00 0.00 42 976.2
20260504080735 52 189 0.0 1.7 0.00 0.00 0.00 36 976.3
20260504080731 51 208 0.0 0.9 0.00 0.00 0.00 36 976.3
20260504080229 51 208 0.0 1.7 0.00 0.00 0.00 36 976.3
20260504070227 53 203 0.0 0.9 0.00 0.00 0.00 34 976.7
20260504060223 46 146 0.0 0.0 0.00 0.00 0.00 52 977.2
20260504050722 49 146 0.0 0.0 0.00 0.00 0.00 47 977.5
20260504050222 49 148 0.0 0.0 0.00 0.00 0.00 47 977.5
20260504045720 49 148 0.0 0.0 0.00 0.00 0.00 49 977.6
20260504045221 49 148 0.0 0.0 0.00 0.00 0.00 49 977.6
20260504044720 50 148 0.0 0.0 0.00 0.00 0.00 46 977.6
20260504044218 50 148 0.0 0.0 0.00 0.00 0.00 45 977.8
20260504043722 51 148 0.0 0.0 0.00 0.00 0.00 42 977.8
20260504043718 51 147 0.0 0.0 0.00 0.00 0.00 45 977.8
20260504042718 51 147 0.0 0.0 0.00 0.00 0.00 44 977.9
20260504042218 51 147 0.0 0.0 0.00 0.00 0.00 45 977.9
20260504041718 51 147 0.0 0.0 0.00 0.00 0.00 44 977.9
20260504041218 52 146 0.0 0.0 0.00 0.00 0.00 41 978.0
20260504040718 53 146 0.0 0.0 0.00 0.00 0.00 40 978.0
20260504040218 53 185 0.0 0.0 0.00 0.00 0.00 40 978.1
20260504035717 53 185 0.0 0.0 0.00 0.00 0.00 40 978.1
20260504035216 53 185 0.0 0.0 0.00 0.00 0.00 39 978.2
20260504034716 54 185 0.0 0.0 0.00 0.00 0.00 38 978.1
20260504034216 54 185 0.0 0.0 0.00 0.00 0.00 37 978.2
20260504033716 54 185 0.0 0.0 0.00 0.00 0.00 37 978.2
20260504033220 54 185 0.0 0.0 0.00 0.00 0.00 36 978.1
20260504033216 54 185 0.0 0.0 0.00 0.00 0.00 38 978.1
20260504032216 54 185 0.0 0.0 0.00 0.00 0.00 36 978.1
20260504031716 54 185 0.0 0.0 0.00 0.00 0.00 37 978.0
20260504031219 56 171 0.0 0.9 0.00 0.00 0.00 37 977.9
20260504031215 55 185 0.0 0.0 0.00 0.00 0.00 38 977.9
20260504030714 55 185 0.0 0.9 0.00 0.00 0.00 37 977.9
20260504025714 56 140 0.0 1.7 0.00 0.00 0.00 36 978.0
20260504025212 57 153 0.0 1.7 0.00 0.00 0.00 35 978.0
20260504024712 58 190 0.0 0.0 0.00 0.00 0.00 33 977.9
20260504024212 58 333 0.0 0.0 0.00 0.00 0.00 31 977.9
20260504023712 58 333 0.0 0.0 0.00 0.00 0.00 30 977.9
20260504023212 59 333 0.0 0.0 0.00 0.00 0.00 30 978.0
20260504022710 59 333 0.0 0.9 0.00 0.00 0.00 29 977.9
20260504022216 60 327 0.0 1.7 0.00 0.00 0.00 29 977.9
20260504022210 59 302 0.0 1.7 0.00 0.00 0.00 30 977.9
20260504021215 60 328 0.9 3.5 0.00 0.00 0.00 29 977.6
20260504021211 60 311 0.9 3.5 0.00 0.00 0.00 29 977.8
20260504020214 60 344 0.9 6.1 0.00 0.00 0.00 27 977.5
20260504020210 60 330 0.9 3.5 0.00 0.00 0.00 28 977.6
20260504015210 61 41 0.9 7.0 0.00 0.00 0.00 27 977.5
20260504014713 61 355 0.0 7.0 0.00 0.00 0.00 26 977.5
20260504014708 61 345 0.9 2.6 0.00 0.00 0.00 25 977.4
20260504013708 61 316 0.9 4.3 0.00 0.00 0.00 25 977.4
20260504013208 62 39 1.7 4.3 0.00 0.00 0.00 25 977.3
20260504012713 62 338 4.3 8.7 0.00 0.00 0.00 25 977.3
20260504012708 62 15 2.6 11.3 0.00 0.00 0.00 25 977.3
20260504012208 62 31 3.5 11.3 0.00 0.00 0.00 25 977.3
20260504011209 62 341 3.5 9.6 0.00 0.00 0.00 25 977.3
20260504010711 63 4 3.5 7.8 0.00 0.00 0.00 25 977.4
20260504010707 63 3 3.5 9.6 0.00 0.00 0.00 25 977.4
20260504005709 63 10 2.6 6.1 0.00 0.00 0.00 24 977.4
20260504005206 63 327 3.5 8.7 0.00 0.00 0.00 24 977.4
20260504004711 64 8 3.5 9.6 0.00 0.00 0.00 21 977.2
20260504004706 64 356 3.5 8.7 0.00 0.00 0.00 22 977.3
20260504004311 64 3 3.5 9.6 0.00 0.00 0.00 20 977.0
20260504003206 65 349 2.6 5.2 0.00 0.00 0.00 21 977.0
20260504002710 65 348 2.6 7.0 0.00 0.00 0.00 19 977.0
20260504002706 65 330 2.6 7.0 0.00 0.00 0.00 20 977.0